Date String (YYYY-MM-DD hh:mm:ss) UTC,Instrument flags,absolute air pressure of the measurement (hPa),sample flow rate (lpm),inlet stack bypass flow (lpm),air temperature of the measurement (°C),ambient temperature measured by the external sensor (°C),aerosol sample conditioner tube jacket temperature (°C),OPC LED temperature (°C),internal box temperature (°C),relative humidity of the measurement (%),span deviation,mass concentration of particles derived from Lorenz-Mie calculation of OPC scattering (μg/m³),mass concentration of particles derived from Lorenz-Mie calculation of OPC scattering (μg/m³),mass concentration of particles derived from Lorenz-Mie calculation of OPC scattering (μg/m³)
DateTimeUTC,F1_M11,P_M11,Q1_M11,Q2_M11,T1_M11,T2_M11,T3_M11,T4_M11,T5_M11,U1_M11,ZSPAN_M11,X2_M11,X0_M11,X1_M11
2024-05-13 03:00:00,SystemResetWarning,0827.5,5.01,000.00,024.5,022.7,000.0,033.1,026.0,032.2,0000.0,0003.80,0007.83,0003.23
2024-05-13 03:01:00,SystemResetWarning,0827.5,5.00,000.00,024.6,023.0,000.0,033.1,026.2,032.2,0000.0,0003.82,0007.75,0003.23
2024-05-13 03:02:00,SystemResetWarning,0827.5,5.00,000.00,024.6,023.3,000.0,033.0,026.3,032.2,0000.0,0003.80,0007.29,0003.22
2024-05-13 03:03:00,SystemResetWarning,0827.5,5.00,000.00,024.7,023.6,000.0,033.0,026.4,032.0,0000.0,0003.83,0007.38,0003.22
2024-05-13 03:04:00,SystemResetWarning,0827.6,5.00,000.00,024.7,023.8,000.0,033.0,026.5,031.7,0000.0,0003.80,0007.35,0003.20
2024-05-13 03:05:00,SystemResetWarning,0827.4,5.00,000.00,024.7,023.9,000.0,033.0,026.6,031.5,0000.0,0003.76,0007.49,0003.19
2024-05-13 03:06:00,SystemResetWarning,0827.8,4.99,000.00,024.8,024.1,000.0,033.0,026.6,031.3,0000.0,0003.75,0007.62,0003.19
2024-05-13 03:07:00,SystemResetWarning,0827.6,4.99,000.00,024.9,024.2,000.0,033.0,026.7,031.2,0000.0,0003.72,0007.47,0003.16
2024-05-13 03:08:00,SystemResetWarning,0827.6,4.99,000.00,024.9,024.3,000.0,033.0,026.7,031.2,0000.0,0003.66,0007.17,0003.13
2024-05-13 03:09:00,SystemResetWarning,0827.4,5.01,000.00,025.0,024.4,000.0,033.1,026.8,031.1,0000.0,0003.61,0007.87,0003.10
2024-05-13 03:10:00,SystemResetWarning,0827.4,5.01,000.00,025.0,024.5,000.0,033.1,026.8,030.8,0000.0,0003.58,0007.85,0003.06
2024-05-13 03:11:00,SystemResetWarning,0827.8,4.99,000.00,025.0,024.6,000.0,033.1,026.9,030.6,0000.0,0003.55,0007.80,0003.01
2024-05-13 03:12:00,SystemResetWarning,0827.4,5.00,000.00,025.1,024.6,000.0,033.1,026.9,030.2,0000.0,0003.48,0007.63,0002.95
2024-05-13 03:13:00,SystemResetWarning,0827.5,4.99,000.00,025.1,024.7,000.0,033.2,027.0,029.8,0000.0,0003.43,0007.58,0002.89
2024-05-13 03:14:00,SystemResetWarning,0827.6,5.00,000.00,025.2,024.7,000.0,033.2,027.0,029.7,0000.0,0003.38,0007.89,0002.82
2024-05-13 03:15:00,SystemResetWarning,0827.5,5.02,000.00,025.2,024.8,000.0,033.2,027.0,029.6,0000.0,0003.33,0007.96,0002.76
2024-05-13 03:16:00,SystemResetWarning,0827.4,4.99,000.00,025.3,024.8,000.0,033.3,027.1,029.6,0000.0,0003.31,0007.70,0002.72
2024-05-13 03:17:00,SystemResetWarning,0827.4,4.99,000.00,025.3,024.9,000.0,033.3,027.1,029.6,0000.0,0003.27,0007.40,0002.67
2024-05-13 03:18:00,SystemResetWarning,0827.4,5.00,000.00,025.3,024.9,000.0,033.3,027.2,029.4,0000.0,0003.23,0007.31,0002.62
2024-05-13 03:19:00,SystemResetWarning,0827.4,5.01,000.00,025.4,024.9,000.0,033.4,027.2,029.1,0000.0,0003.19,0007.10,0002.58
2024-05-13 03:20:00,SystemResetWarning,0827.4,4.99,000.00,025.4,025.0,000.0,033.4,027.2,028.8,0000.0,0003.17,0005.74,0002.55
2024-05-13 03:21:00,SystemResetWarning,0827.4,5.00,000.00,025.4,025.0,000.0,033.4,027.2,028.4,0000.0,0003.14,0005.64,0002.52
2024-05-13 03:22:00,SystemResetWarning,0827.4,4.99,000.00,025.5,025.0,000.0,033.4,027.3,028.1,0000.0,0003.10,0005.57,0002.49
2024-05-13 03:23:00,SystemResetWarning,0827.4,5.00,000.00,025.5,025.1,000.0,033.5,027.3,028.1,0000.0,0003.07,0005.56,0002.46
2024-05-13 03:24:00,SystemResetWarning,0827.4,5.00,000.00,025.5,025.1,000.0,033.5,027.3,027.9,0000.0,0003.03,0005.43,0002.45
2024-05-13 03:25:00,SystemResetWarning,0827.4,5.01,000.00,025.5,025.1,000.0,033.5,027.3,028.0,0000.0,0002.99,0004.62,0002.43
2024-05-13 03:26:00,SystemResetWarning,0827.4,5.00,000.00,025.6,025.0,000.0,033.6,027.2,028.0,0000.0,0002.97,0004.29,0002.41
2024-05-13 03:27:00,SystemResetWarning,0827.4,4.98,000.00,025.3,022.8,000.0,033.7,026.2,028.4,0000.0,0002.95,0004.30,0002.39
2024-05-13 03:28:00,SystemResetWarning,0827.3,5.02,000.00,024.8,021.5,000.0,033.7,025.5,029.1,0000.0,0002.90,0004.21,0002.38
2024-05-13 03:29:00,SystemResetWarning,0827.3,5.00,000.00,024.6,021.7,000.0,033.5,025.4,029.5,0000.0,0002.88,0004.17,0002.38
2024-05-13 03:30:00,SystemResetWarning,0827.3,4.99,000.00,024.5,022.1,000.0,033.4,025.6,029.6,0000.0,0002.94,0004.60,0002.40
2024-05-13 03:31:00,SystemResetWarning,0827.3,5.00,000.00,024.6,022.5,000.0,033.3,025.9,029.7,0000.0,0002.99,0004.82,0002.40
2024-05-13 03:32:00,SystemResetWarning,0827.4,5.01,000.00,024.6,022.8,000.0,033.2,026.1,029.6,0000.0,0002.98,0004.76,0002.40
2024-05-13 03:33:00,SystemResetWarning,0827.4,5.01,000.00,024.6,023.1,000.0,033.1,026.2,029.2,0000.0,0002.98,0004.71,0002.40
2024-05-13 03:34:00,SystemResetWarning,0827.4,4.98,000.00,024.6,023.4,000.0,033.1,026.3,029.1,0000.0,0003.04,0004.94,0002.41
2024-05-13 03:35:00,SystemResetWarning,0827.4,4.99,000.00,024.7,023.6,000.0,033.1,026.4,029.0,0000.0,0003.04,0005.10,0002.40
2024-05-13 03:36:00,SystemResetWarning,0827.4,5.01,000.00,024.7,023.8,000.0,033.1,026.5,028.9,0000.0,0003.05,0005.11,0002.41
2024-05-13 03:37:00,SystemResetWarning,0827.4,5.01,000.00,024.8,023.9,000.0,033.1,026.5,028.8,0000.0,0003.12,0005.35,0002.43
2024-05-13 03:38:00,SystemResetWarning,0827.4,4.99,000.00,024.8,024.1,000.0,033.1,026.6,028.5,0000.0,0003.12,0005.34,0002.45
2024-05-13 03:39:00,SystemResetWarning,0827.4,4.99,000.00,024.8,024.2,000.0,033.1,026.6,028.3,0000.0,0003.14,0005.38,0002.46
2024-05-13 03:40:00,SystemResetWarning,0827.4,4.99,000.00,024.9,024.3,000.0,033.1,026.7,028.1,0000.0,0003.16,0005.44,0002.46
2024-05-13 03:41:00,SystemResetWarning,0827.4,5.01,000.00,024.9,024.4,000.0,033.1,026.7,028.1,0000.0,0003.16,0005.40,0002.45
2024-05-13 03:42:00,SystemResetWarning,0827.4,5.01,000.00,025.0,024.5,000.0,033.1,026.8,027.9,0000.0,0003.15,0005.17,0002.44
2024-05-13 03:43:00,SystemResetWarning,0827.4,5.00,000.00,025.0,024.5,000.0,033.1,026.8,027.9,0000.0,0003.14,0005.15,0002.44
2024-05-13 03:44:00,SystemResetWarning,0827.4,4.99,000.00,025.1,024.6,000.0,033.2,026.8,027.9,0000.0,0003.16,0005.25,0002.44
2024-05-13 03:45:00,SystemResetWarning,0827.4,4.99,000.00,025.1,024.6,000.0,033.2,026.9,027.7,0000.0,0003.16,0005.17,0002.45
2024-05-13 03:46:00,SystemResetWarning,0827.4,5.01,000.00,025.1,024.7,000.0,033.2,026.9,027.6,0000.0,0003.19,0005.20,0002.46
2024-05-13 03:47:00,SystemResetWarning,0827.4,5.01,000.00,025.2,024.7,000.0,033.2,027.0,027.4,0000.0,0003.19,0005.30,0002.46
2024-05-13 03:48:00,SystemResetWarning,0827.3,5.00,000.00,025.2,024.8,000.0,033.3,027.0,027.3,0000.0,0003.15,0006.09,0002.45
2024-05-13 03:49:00,SystemResetWarning,0827.2,4.99,000.00,025.2,024.8,000.0,033.3,027.0,027.2,0000.0,0003.12,0006.03,0002.43
2024-05-13 03:50:00,SystemResetWarning,0827.2,5.00,000.00,025.3,024.8,000.0,033.3,027.1,027.0,0000.0,0003.12,0006.18,0002.42
2024-05-13 03:51:00,SystemResetWarning,0827.2,5.01,000.00,025.3,024.9,000.0,033.3,027.1,026.8,0000.0,0003.14,0006.37,0002.43
2024-05-13 03:52:00,SystemResetWarning,0827.2,4.99,000.00,025.3,024.9,000.0,033.4,027.1,026.8,0000.0,0003.14,0006.72,0002.42
2024-05-13 03:53:00,SystemResetWarning,0827.2,5.00,000.00,025.3,024.9,000.0,033.4,027.1,026.5,0000.0,0003.13,0007.65,0002.41
2024-05-13 03:54:00,SystemResetWarning,0827.2,4.99,000.00,025.4,024.9,000.0,033.4,027.2,026.4,0000.0,0003.15,0007.68,0002.42
2024-05-13 03:55:00,SystemResetWarning,0827.2,5.00,000.00,025.4,025.0,000.0,033.5,027.2,026.3,0000.0,0003.16,0007.70,0002.41
2024-05-13 03:56:00,SystemResetWarning,0827.2,5.01,000.00,025.4,025.0,000.0,033.5,027.2,026.5,0000.0,0003.12,0007.63,0002.39
2024-05-13 03:57:00,SystemResetWarning,0827.2,5.01,000.00,025.5,025.0,000.0,033.5,027.3,026.5,0000.0,0003.10,0007.54,0002.38
2024-05-13 03:58:00,SystemResetWarning,0827.1,5.00,000.00,025.5,025.0,000.0,033.5,027.3,026.2,0000.0,0003.08,0007.62,0002.38
2024-05-13 03:59:00,SystemResetWarning,0827.1,4.99,000.00,025.5,025.1,000.0,033.6,027.3,026.1,0000.0,0003.09,0007.54,0002.38
